EWG5KW EDDC-EDDH

Flight info

Callsign EWG5KW
Flight time 0h 41m
Altitude 28000
Route OSKAN9E OSKAN M748 RARUP RARUP6A
Aircraft A319/M-SDE3FGHIRWY/LB1

Departure

Time 2026-05-05 19:05
Airport Dresden Airport (EDDC)

Arrival

Time 2026-05-05 19:46
Airport Hamburg Helmut Schmidt Airport (EDDH)
Time Latitude Longitude Altitude Speed Heading
2026-05-05 18:46 51.12629 13.76401 716 ft 0 kts 131°
2026-05-05 18:53 51.12629 13.76400 717 ft 0 kts 131°
2026-05-05 18:53 51.12630 13.76400 717 ft 0 kts 131°
2026-05-05 19:00 51.12630 13.76399 711 ft 2 kts 131°
2026-05-05 19:00 51.12648 13.76370 713 ft 4 kts 143°
2026-05-05 19:01 51.12669 13.76355 716 ft 4 kts 198°
2026-05-05 19:01 51.12677 13.76360 715 ft 0 kts 221°
2026-05-05 19:03 51.12675 13.76358 715 ft 1 kts 224°
2026-05-05 19:03 51.12674 13.76321 715 ft 6 kts 266°
2026-05-05 19:03 51.12668 13.76235 711 ft 9 kts 252°
2026-05-05 19:03 51.12621 13.76159 714 ft 10 kts 220°
2026-05-05 19:04 51.12579 13.76073 711 ft 11 kts 272°
2026-05-05 19:04 51.12623 13.75971 710 ft 12 kts 312°
2026-05-05 19:04 51.12682 13.75867 713 ft 13 kts 312°
2026-05-05 19:04 51.12762 13.75873 714 ft 19 kts 41°
2026-05-05 19:05 51.13056 13.76276 712 ft 95 kts 40°
2026-05-05 19:05 51.13732 13.77200 740 ft 154 kts 39°
2026-05-05 19:05 51.14530 13.78337 1418 ft 153 kts 42°
2026-05-05 19:05 51.15327 13.79492 2100 ft 162 kts 43°
2026-05-05 19:06 51.16225 13.80784 2524 ft 185 kts 43°
2026-05-05 19:06 51.17258 13.82220 2919 ft 210 kts 42°
2026-05-05 19:06 51.18430 13.83824 3416 ft 235 kts 41°
2026-05-05 19:06 51.19803 13.85445 4064 ft 256 kts 26°
2026-05-05 19:07 51.21581 13.85804 4910 ft 272 kts 353°
2026-05-05 19:07 51.23462 13.85173 5868 ft 280 kts 347°
2026-05-05 19:07 51.25385 13.84489 6804 ft 286 kts 348°
2026-05-05 19:07 51.27354 13.83878 7769 ft 290 kts 350°
2026-05-05 19:08 51.29365 13.83364 8748 ft 295 kts 351°
2026-05-05 19:08 51.31352 13.82497 9717 ft 299 kts 336°
2026-05-05 19:08 51.33206 13.80863 10317 ft 315 kts 322°
2026-05-05 19:08 51.34929 13.78517 10677 ft 337 kts 317°
2026-05-05 19:09 51.36714 13.75998 11369 ft 346 kts 317°
2026-05-05 19:09 51.38535 13.73426 12204 ft 351 kts 316°
2026-05-05 19:09 51.40383 13.70819 13049 ft 356 kts 316°
2026-05-05 19:09 51.42251 13.68182 13842 ft 360 kts 316°
2026-05-05 19:10 51.44141 13.65517 14579 ft 364 kts 316°
2026-05-05 19:10 51.46026 13.62856 15320 ft 368 kts 316°
2026-05-05 19:10 51.47959 13.60124 16052 ft 371 kts 316°
2026-05-05 19:10 51.49906 13.57363 16792 ft 375 kts 316°
2026-05-05 19:11 51.51869 13.54578 17542 ft 378 kts 315°
2026-05-05 19:11 51.53854 13.51763 18238 ft 382 kts 315°
2026-05-05 19:11 51.55857 13.48923 18855 ft 386 kts 315°
2026-05-05 19:11 51.57886 13.46044 19491 ft 390 kts 315°
2026-05-05 19:12 51.59952 13.43106 20136 ft 393 kts 315°
2026-05-05 19:12 51.61977 13.40220 20764 ft 397 kts 315°
2026-05-05 19:12 51.64051 13.37259 21392 ft 400 kts 314°
2026-05-05 19:12 51.66140 13.34276 22029 ft 404 kts 314°
2026-05-05 19:13 51.68249 13.31256 22623 ft 407 kts 314°
2026-05-05 19:13 51.70379 13.28200 23217 ft 411 kts 314°
2026-05-05 19:13 51.72490 13.25164 23717 ft 414 kts 314°
2026-05-05 19:13 51.74646 13.22062 24211 ft 416 kts 314°
2026-05-05 19:14 51.76818 13.18935 24710 ft 419 kts 314°
2026-05-05 19:14 51.78993 13.15799 25188 ft 421 kts 314°
2026-05-05 19:14 51.81183 13.12633 25702 ft 422 kts 314°
2026-05-05 19:14 51.83381 13.09457 26178 ft 425 kts 314°
2026-05-05 19:15 51.85598 13.06255 26645 ft 427 kts 314°
2026-05-05 19:15 51.87816 13.03041 27107 ft 430 kts 314°
2026-05-05 19:15 51.90049 12.99796 27567 ft 432 kts 314°
2026-05-05 19:15 51.92260 12.96582 27781 ft 433 kts 314°
2026-05-05 19:16 51.94473 12.93368 27816 ft 422 kts 314°
2026-05-05 19:16 51.96654 12.90199 27821 ft 418 kts 314°
2026-05-05 19:16 51.98815 12.87051 27821 ft 417 kts 313°
2026-05-05 19:16 52.00960 12.83909 27821 ft 416 kts 313°
2026-05-05 19:17 52.03110 12.80754 27832 ft 417 kts 313°
2026-05-05 19:17 52.05269 12.77582 27828 ft 423 kts 313°
2026-05-05 19:17 52.07487 12.74313 27845 ft 437 kts 313°
2026-05-05 19:17 52.09771 12.70942 27830 ft 450 kts 313°
2026-05-05 19:18 52.12121 12.67473 27832 ft 461 kts 313°
2026-05-05 19:18 52.14520 12.63934 27838 ft 471 kts 313°
2026-05-05 19:18 52.16975 12.60316 27838 ft 477 kts 313°
2026-05-05 19:18 52.19434 12.56689 27840 ft 479 kts 313°
2026-05-05 19:19 52.21876 12.53088 27841 ft 479 kts 313°
2026-05-05 19:19 52.24356 12.49425 27844 ft 480 kts 313°
2026-05-05 19:19 52.26806 12.45740 27844 ft 479 kts 312°
2026-05-05 19:19 52.29174 12.41902 27850 ft 479 kts 310°
2026-05-05 19:20 52.31458 12.37945 27851 ft 479 kts 308°
2026-05-05 19:20 52.33734 12.33976 27857 ft 481 kts 311°
2026-05-05 19:20 52.36176 12.30228 27851 ft 482 kts 313°
2026-05-05 19:20 52.38661 12.26521 27868 ft 482 kts 314°
2026-05-05 19:21 52.41164 12.22879 27872 ft 481 kts 314°
2026-05-05 19:21 52.43683 12.19269 27882 ft 481 kts 314°
2026-05-05 19:21 52.46177 12.15716 27887 ft 480 kts 314°
2026-05-05 19:21 52.48696 12.12123 27882 ft 480 kts 314°
2026-05-05 19:22 52.51215 12.08506 27883 ft 479 kts 314°
2026-05-05 19:22 52.53713 12.04889 27885 ft 479 kts 314°
2026-05-05 19:22 52.56211 12.01256 27886 ft 479 kts 314°
2026-05-05 19:22 52.58699 11.97621 27865 ft 479 kts 314°
2026-05-05 19:23 52.61195 11.93966 27467 ft 480 kts 314°
2026-05-05 19:23 52.63671 11.90347 27052 ft 481 kts 315°
2026-05-05 19:23 52.66234 11.86806 26658 ft 483 kts 317°
2026-05-05 19:23 52.68885 11.83388 26241 ft 484 kts 319°
2026-05-05 19:24 52.71582 11.80066 25848 ft 485 kts 320°
2026-05-05 19:24 52.74307 11.76760 25453 ft 486 kts 320°
2026-05-05 19:24 52.77028 11.73435 25069 ft 487 kts 319°
2026-05-05 19:24 52.79733 11.70076 24685 ft 488 kts 319°
2026-05-05 19:25 52.82430 11.66673 24306 ft 486 kts 319°
2026-05-05 19:25 52.85105 11.63256 23979 ft 484 kts 319°
2026-05-05 19:25 52.87766 11.59832 23841 ft 483 kts 319°
2026-05-05 19:25 52.90424 11.56398 23892 ft 484 kts 319°
2026-05-05 19:26 52.93050 11.53003 23887 ft 484 kts 319°
2026-05-05 19:26 52.95710 11.49570 23885 ft 484 kts 319°
2026-05-05 19:26 52.98373 11.46143 23889 ft 484 kts 319°
2026-05-05 19:26 53.01039 11.42715 23894 ft 484 kts 319°
2026-05-05 19:27 53.03701 11.39287 23892 ft 484 kts 319°
2026-05-05 19:27 53.06366 11.35855 23838 ft 485 kts 319°
2026-05-05 19:27 53.09017 11.32445 23252 ft 475 kts 319°
2026-05-05 19:27 53.11592 11.29140 22622 ft 460 kts 319°
2026-05-05 19:28 53.14122 11.25994 21990 ft 449 kts 321°
2026-05-05 19:28 53.16660 11.23015 21362 ft 441 kts 323°
2026-05-05 19:28 53.19151 11.20191 20757 ft 436 kts 323°
2026-05-05 19:28 53.21660 11.17380 20162 ft 432 kts 324°
2026-05-05 19:29 53.24139 11.14590 19579 ft 427 kts 324°
2026-05-05 19:29 53.26585 11.11805 19000 ft 424 kts 324°
2026-05-05 19:29 53.29010 11.09014 18430 ft 420 kts 324°
2026-05-05 19:29 53.31401 11.06238 17823 ft 417 kts 323°
2026-05-05 19:30 53.33775 11.03468 17186 ft 414 kts 323°
2026-05-05 19:30 53.36099 11.00749 16575 ft 410 kts 323°
2026-05-05 19:30 53.38409 10.97986 15958 ft 406 kts 320°
2026-05-05 19:30 53.40334 10.94587 15365 ft 400 kts 303°
2026-05-05 19:31 53.41584 10.90490 14875 ft 393 kts 287°
2026-05-05 19:31 53.42083 10.86035 14399 ft 387 kts 271°
2026-05-05 19:31 53.42088 10.81547 13925 ft 384 kts 269°
2026-05-05 19:31 53.42075 10.77092 13419 ft 380 kts 269°
2026-05-05 19:32 53.42067 10.72698 12883 ft 373 kts 269°
2026-05-05 19:32 53.42063 10.68401 12368 ft 365 kts 269°
2026-05-05 19:32 53.42060 10.64190 11852 ft 357 kts 269°
2026-05-05 19:32 53.42055 10.60110 11342 ft 341 kts 269°
2026-05-05 19:33 53.42048 10.56228 10832 ft 325 kts 269°
2026-05-05 19:33 53.42039 10.52513 10354 ft 312 kts 269°
2026-05-05 19:33 53.42027 10.48940 9873 ft 301 kts 269°
2026-05-05 19:33 53.42011 10.45488 9351 ft 291 kts 269°
2026-05-05 19:34 53.41996 10.42190 8847 ft 283 kts 269°
2026-05-05 19:34 53.41982 10.38959 8458 ft 271 kts 269°
2026-05-05 19:34 53.41969 10.35872 8073 ft 260 kts 269°
2026-05-05 19:35 53.41937 10.30029 7326 ft 244 kts 269°
2026-05-05 19:35 53.41921 10.27175 6953 ft 244 kts 269°
2026-05-05 19:35 53.41907 10.24328 6618 ft 243 kts 269°
2026-05-05 19:35 53.41895 10.21500 6388 ft 242 kts 269°
2026-05-05 19:36 53.41879 10.18685 6135 ft 242 kts 269°
2026-05-05 19:36 53.41861 10.15865 5873 ft 242 kts 269°
2026-05-05 19:36 53.41843 10.13057 5619 ft 241 kts 269°
2026-05-05 19:36 53.41825 10.10245 5362 ft 240 kts 269°
2026-05-05 19:37 53.41806 10.07480 5107 ft 241 kts 270°
2026-05-05 19:37 53.41787 10.04677 4855 ft 241 kts 270°
2026-05-05 19:37 53.41766 10.01872 4602 ft 240 kts 270°
2026-05-05 19:37 53.41745 9.99076 4342 ft 241 kts 270°
2026-05-05 19:38 53.41723 9.96261 4099 ft 241 kts 270°
2026-05-05 19:38 53.41700 9.93452 4002 ft 240 kts 270°
2026-05-05 19:38 53.41675 9.90650 4012 ft 241 kts 270°
2026-05-05 19:38 53.41865 9.87885 3947 ft 240 kts 289°
2026-05-05 19:39 53.42448 9.85277 3677 ft 238 kts 294°
2026-05-05 19:39 53.43074 9.82709 3399 ft 236 kts 294°
2026-05-05 19:39 53.43689 9.80166 3121 ft 234 kts 295°
2026-05-05 19:39 53.44274 9.77681 3027 ft 224 kts 294°
2026-05-05 19:40 53.44850 9.75281 3028 ft 219 kts 300°
2026-05-05 19:40 53.45837 9.73479 2955 ft 211 kts 332°
2026-05-05 19:40 53.47164 9.72563 2785 ft 202 kts 352°
2026-05-05 19:40 53.48516 9.72467 2671 ft 190 kts 11°
2026-05-05 19:41 53.49760 9.73080 2577 ft 184 kts 28°
2026-05-05 19:41 53.50800 9.74275 2530 ft 180 kts 45°
2026-05-05 19:41 53.51625 9.75853 2535 ft 180 kts 51°
2026-05-05 19:41 53.52428 9.77461 2532 ft 179 kts 51°
2026-05-05 19:42 53.53206 9.79021 2528 ft 168 kts 51°
2026-05-05 19:42 53.53944 9.80501 2490 ft 162 kts 51°
2026-05-05 19:42 53.54663 9.81946 2335 ft 159 kts 51°
2026-05-05 19:42 53.55370 9.83365 2153 ft 157 kts 51°
2026-05-05 19:43 53.56068 9.84769 1943 ft 156 kts 51°
2026-05-05 19:43 53.56762 9.86163 1728 ft 152 kts 51°
2026-05-05 19:43 53.57383 9.87413 1531 ft 131 kts 51°
2026-05-05 19:43 53.57948 9.88550 1355 ft 123 kts 51°
2026-05-05 19:44 53.58490 9.89641 1182 ft 120 kts 52°
2026-05-05 19:44 53.59029 9.90728 978 ft 121 kts 51°
2026-05-05 19:44 53.59563 9.91807 801 ft 120 kts 50°
2026-05-05 19:44 53.60102 9.92893 638 ft 121 kts 50°
2026-05-05 19:45 53.60637 9.93980 493 ft 122 kts 50°
2026-05-05 19:45 53.61177 9.95069 326 ft 122 kts 51°
2026-05-05 19:45 53.61715 9.96152 153 ft 121 kts 50°
2026-05-05 19:45 53.62242 9.97214 42 ft 111 kts 50°
2026-05-05 19:46 53.62647 9.98033 42 ft 75 kts 50°
2026-05-05 19:46 53.62935 9.98620 45 ft 56 kts 50°
2026-05-05 19:46 53.63154 9.99064 47 ft 46 kts 50°
2026-05-05 19:46 53.63290 9.99428 47 ft 30 kts 85°
2026-05-05 19:47 53.63279 9.99645 49 ft 4 kts 101°
2026-05-05 19:47 53.63278 9.99658 49 ft 1 kts 101°
2026-05-05 19:47 53.63273 9.99694 49 ft 7 kts 106°
2026-05-05 19:47 53.63222 9.99763 49 ft 13 kts 153°
2026-05-05 19:48 53.63121 9.99846 49 ft 19 kts 152°
2026-05-05 19:48 53.63010 9.99943 49 ft 17 kts 153°
2026-05-05 19:48 53.62961 10.00070 47 ft 14 kts 50°
2026-05-05 19:48 53.62951 10.00155 49 ft 7 kts 105°
2026-05-05 19:49 53.62936 10.00241 47 ft 8 kts 108°
2026-05-05 19:49 53.62926 10.00294 49 ft 0 kts 108°